Погода в Становом Колодезе

Россия / Орловская область     52°49′15″N   36°15′50″E
темп.,
°C
ветер,
м/с
пор.,
м/с
влажн.,
%
обл.,
%
осадки,
мм/ч
давл.,
гПа
погр.,
м
4 марта, чт
чт400:00−1з51089100 0.0 1016617
03:00−3зюз6129269 0.0 1015310
06:00−3зюз6139219 0.0 1012335
09:00−2зюз8168520 0.0 1010513
12:00+1зюз7138543 0.0 1007723
15:00+1зюз6139361 0.0 1005719
18:00+2зюз5129297 0.0 1003514
21:00+1з499598 0.1 1003331
5 марта, пт
пт500:00−1з3796100 0.1 1003419
03:00−2зсз4797100 0.3 1005345
06:00−3с3596100 0.2 1006244
09:00−3ссз2291100 0.3 1008139
12:00−1ссз238279 0.0 1009496
15:00−1с338188 0.1 1010594
18:00−3св2287100 0.0 101126
21:00−4ссв2388100 0.0 101452
6 марта, сб
сб600:00−6ссв239092 0.0 101549
03:00−7св129175 0.0 101626
06:00−7юв11901 0.0 101521
09:00−6ю22900 0.0 101685
12:00−3юз128289 0.0 1016432
15:00−3зсз238494 0.7 1016446
18:00−4сз358995 0.7 1017153
21:00−7ссз598691 0.8 1019559
7 марта, вс
вс700:00−8з36877 0.0 1020152
03:00−7юз510824 0.0 1018300
06:00−6юз8167255 0.0 1015588
09:00−5юз10187077 0.0 1011826
12:00−3зюз121985100 0.1 10071209
15:00−1зюз121979100 0.1 10031426
18:00−1зюз101977100 0.1 10011226
21:00−3сз71293100 3.2 1003940
8 марта, пн
пн800:00−5з51282100 0.3 1003402
03:00−5з7138681 0.4 1004927
06:00−7зсз6138337 0.0 1005675
09:00−7зсз7108633 0.0 1007923
12:00−7зсз6878100 0.1 10091143
15:00−6сз5774100 0.2 10111197
18:00−8сз358774 0.1 1012174
21:00−8сз238987 0.1 101484